Home > Weather > Cheyenne > Past weeks

Flag for USA Weather for the Past 2 Weeks in Cheyenne, Wyoming, USA

Now
44 °F

Clear.


Feels Like: 39 °F
Forecast: 52 / 74 °F
Wind: 9 mph from West

Location: Cheyenne Airport

Current Time: May 6, 2016 at 5:25:35 AM

Latest Report: May 6, 2016 at 4:53 AM


Visibility: 10 mi

Pressure: 29.80 "Hg (23.76 "Hg at 1855m altitude)

Humidity: 79%

Dew Point: 38 °F

Location of CheyenneLocation

Historic Weather in Cheyenne — Graph

°F

Cheyenne Temperature Yesterday

Maximum temperature yesterday: 76 °F (at 2:53 PM)
Minimum temperature yesterday: 46 °F (at 4:53 AM)
Average temperature yesterday: 62 °F

High & Low Weather Summary for the Past Weeks

 TemperatureHumidityPressure
High76 °F (May 5, 2:53 PM)100% (Apr 29, 6:53 AM)30.38 "Hg (Apr 29, 6:53 AM)
Low25 °F (Apr 27, 3:53 AM)15% (May 2, 12:53 PM)29.43 "Hg (Apr 23, 4:53 PM)
Average44 °F64%29.92 "Hg
* Reported Apr 21 3:53 AM — May 6 3:53 AM, Cheyenne, Weather by CustomWeather, © 2016

Note: Actual official high and low records may vary slightly from our data, if they occured in-between our weather recording intervals... More about our weather records

Advertising

Cheyenne Weather History for the Previous 24 Hours

Scroll right to see more
 ConditionsComfort  
Time TempWeatherWind HumidityBarometerVisibility
3:53 AM
Fri, May 6
46 °FClear.8 mph73%29.82 "Hg10 mi
2:53 AM52 °FClear.6 mph61%29.80 "Hg10 mi
1:53 AM56 °FClear.8 mph53%29.81 "Hg10 mi
12:53 AM58 °FClear.8 mph46%29.83 "Hg10 mi
11:53 PM
Thu, May 5
59 °FClear.7 mph42%29.83 "Hg10 mi
10:53 PM56 °FClear.6 mph47%29.85 "Hg10 mi
9:53 PM59 °FClear.7 mph41%29.85 "Hg10 mi
8:53 PM62 °FSunny.7 mph35%29.84 "Hg10 mi
7:53 PM66 °FSunny.7 mph28%29.84 "Hg10 mi
6:53 PM71 °FPartly sunny.13 mph24%29.85 "Hg10 mi
5:53 PM73 °FPartly sunny.8 mph22%29.84 "Hg10 mi
4:53 PM76 °FScattered clouds.6 mph17%29.85 "Hg10 mi
3:53 PM73 °FOvercast.5 mph20%29.87 "Hg10 mi
2:53 PM76 °FSunny.6 mph15%29.88 "Hg10 mi
1:53 PM75 °FSunny.6 mph15%29.89 "Hg10 mi
12:53 PM73 °FSunny.5 mph17%29.91 "Hg10 mi
11:53 AM72 °FSunny.9 mph18%29.94 "Hg10 mi
10:53 AM70 °FSunny.8 mph20%29.95 "Hg10 mi
9:53 AM69 °FSunny.8 mph27%29.95 "Hg10 mi
8:53 AM64 °FSunny.10 mph35%29.96 "Hg10 mi
7:53 AM55 °FSunny.12 mph47%29.97 "Hg10 mi
6:53 AM47 °FSunny.8 mph66%29.98 "Hg10 mi
5:53 AM48 °FClear.13 mph59%29.96 "Hg10 mi
Weather by CustomWeather, © 2016

See weather overviewHow to use our weather pages